Weather History for KCKV - March, 2013

Change the Weather History Date:

Saturday, March 16, 2013

  Actual Average Record
Temperature  
Mean Temperature 61 °F -  
Max Temperature 75 °F - 82 °F (1977)
Min Temperature 47 °F - 16 °F (1970)
Degree Days  
Heating Degree Days 4    
Month to date heating degree days 355  
Since 1 July heating degree days 3272  
Cooling Degree Days 0    
Month to date cooling degree days 0  
Growing Degree Days 12 (Base 50)    
Moisture  
Dew Point 46 °F    
Average Humidity 56    
Maximum Humidity 71    
Minimum Humidity 41    
Precipitation  
Precipitation 0.00 in - 1.46 in (1973)
Month to date precipitation 2.44  
Sea Level Pressure  
Sea Level Pressure 29.84 in    
Wind  
Wind Speed 13 mph (West)    
Max Wind Speed 22 mph    
Max Gust Speed 28 mph    
Visibility 9 miles    
Events      
T = Trace of Precipitation, MM = Missing Value Source: NWS Daily Summary

Daily Weather History Graph

Daily Weather History Graph

Search for Another Location

Airport or City:

Trip Planner

Search our weather history database for the weather conditions in past years. The results will help you decide how hot, cold, wet, or windy it might be!

Date:

Astronomy

Mar. 16, 2013 Rise Set
Actual Time 6:58 AM CDT 6:58 PM CDT
Civil Twilight 6:32 AM CDT 7:23 PM CDT
Nautical Twilight 6:03 AM CDT 7:53 PM CDT
Astronomical Twilight 5:32 AM CDT 8:24 PM CDT
Moon 9:36 AM CDT (3/16) 11:58 PM CDT (3/16)
Length of Visible Light 12h 50m
Length of Day
11h 59m
Waxing Crescent, 23% of the Moon is Illuminated
Mar 16
Waxing Crescent
Mar 19
First Quarter
Mar 27
Full
Apr 2
Last Quarter
Apr 10
New

Hourly Weather History & Observations

Time (CDT) Temp. Dew Point Humidity Pressure Visibility Wind Dir Wind Speed Gust Speed Precip Events Conditions
12:52 AM 66.9 °F 46.0 °F 47% 29.80 in 10.0 mi SW 13.8 mph 23.0 mph N/A   Clear
1:52 AM 66.0 °F 45.0 °F 47% 29.79 in 10.0 mi SW 15.0 mph 20.7 mph N/A   Clear
2:52 AM 64.9 °F 45.0 °F 48% 29.79 in 10.0 mi SW 12.7 mph - N/A   Clear
3:52 AM 64.0 °F 44.1 °F 48% 29.78 in 10.0 mi SW 11.5 mph 21.9 mph N/A   Clear
4:52 AM 63.0 °F 44.1 °F 50% 29.78 in 10.0 mi SW 10.4 mph - N/A   Clear
5:52 AM 62.1 °F 44.1 °F 52% 29.78 in 10.0 mi SW 10.4 mph 19.6 mph N/A   Clear
6:52 AM 61.0 °F 45.0 °F 56% 29.80 in 10.0 mi SW 11.5 mph - N/A   Clear
7:52 AM 61.0 °F 46.0 °F 58% 29.80 in 10.0 mi SW 13.8 mph 21.9 mph N/A   Clear
8:52 AM 64.0 °F 48.0 °F 56% 29.81 in 10.0 mi WSW 17.3 mph 25.3 mph N/A   Clear
9:52 AM 66.0 °F 48.9 °F 54% 29.81 in 10.0 mi WSW 16.1 mph 24.2 mph N/A   Clear
10:52 AM 70.0 °F 48.9 °F 47% 29.81 in 10.0 mi WSW 16.1 mph 26.5 mph N/A   Clear
11:52 AM 71.1 °F 48.9 °F 45% 29.82 in 10.0 mi WSW 13.8 mph 23.0 mph N/A   Clear
12:52 PM 73.0 °F 48.9 °F 42% 29.82 in 10.0 mi WNW 17.3 mph 26.5 mph N/A   Clear
1:52 PM 73.0 °F 48.9 °F 42% 29.83 in 10.0 mi West 16.1 mph 25.3 mph N/A   Mostly Cloudy
2:52 PM 73.0 °F 50.0 °F 44% 29.81 in 10.0 mi WNW 12.7 mph - N/A   Mostly Cloudy
3:52 PM 72.0 °F 48.9 °F 44% 29.82 in 10.0 mi NW 13.8 mph 17.3 mph N/A   Mostly Cloudy
4:52 PM 69.1 °F 50.0 °F 51% 29.83 in 10.0 mi NNW 13.8 mph - N/A   Mostly Cloudy
5:52 PM 62.1 °F 46.9 °F 58% 29.87 in 9.0 mi North 18.4 mph - N/A   Clear
6:52 PM 57.0 °F 46.0 °F 67% 29.88 in 6.0 mi North 11.5 mph - N/A   Haze
7:52 PM 54.0 °F 43.0 °F 66% 29.93 in 7.0 mi North 13.8 mph - N/A   Overcast
8:52 PM 53.1 °F 43.0 °F 69% 29.93 in 7.0 mi NNE 9.2 mph - N/A   Overcast
9:52 PM 52.0 °F 42.1 °F 69% 29.95 in 7.0 mi North 8.1 mph - N/A   Overcast
10:52 PM 50.0 °F 41.0 °F 71% 29.97 in 7.0 mi North 9.2 mph - N/A   Overcast
11:52 PM 48.0 °F 39.9 °F 74% 29.96 in 6.0 mi NE 4.6 mph - N/A   Haze